This is the latest recevied weather packets stored in our database for station/object KA8DUX-2. If no packets are shown the sender has not sent any weather packets the latest 1 day(s).
| Time | Temp. | Humidity | Pressure | Rain* | Wind** | Luminosity | Snow |
|---|---|---|---|---|---|---|---|
| 1778000901 | 13.33° C | 35% | 1006.4 hPa | 0 mm | 1.34 m/s, 155° | 410 W/m² | - |
| 1778000598 | 12.78° C | 35% | 1005.9 hPa | 0 mm | 0.89 m/s, 107° | 514 W/m² | - |
| 1778000293 | 13.33° C | 37% | 1006 hPa | 0 mm | 0.89 m/s, 285° | 516 W/m² | - |
| 1777999989 | 13.89° C | 37% | 1006.2 hPa | 0 mm | 0.89 m/s, 255° | 396 W/m² | - |
| 1777999685 | 13.33° C | 35% | 1006.2 hPa | 0 mm | 0.89 m/s, 173° | 533 W/m² | - |
| 1777999383 | 12.78° C | 37% | 1006 hPa | 0 mm | 0.45 m/s, 6° | 449 W/m² | - |
| 1777999081 | 12.78° C | 38% | 1006.2 hPa | 0 mm | 0.89 m/s, 11° | 298 W/m² | - |
| 1777998779 | 12.78° C | 36% | 1005.9 hPa | 0 mm | 1.79 m/s, 226° | 416 W/m² | - |
| 1777998476 | 12.78° C | 36% | 1006.3 hPa | 0 mm | 1.34 m/s, 125° | 412 W/m² | - |
| 1777998173 | 12.78° C | 36% | 1006.3 hPa | 0 mm | 1.34 m/s, 222° | 275 W/m² | - |
| 1777997870 | 12.78° C | 43% | 1006 hPa | 0 mm | 0 m/s | 547 W/m² | - |
| 1777997567 | 12.78° C | 37% | 1006.2 hPa | 0 mm | 0.89 m/s, 193° | 368 W/m² | - |
| 1777997264 | 13.89° C | 38% | 1006.2 hPa | 0 mm | 1.34 m/s, 245° | 657 W/m² | - |
| 1777996962 | 13.33° C | 40% | 1006.4 hPa | 0 mm | 0 m/s | 476 W/m² | - |
| 1777996658 | 13.89° C | 38% | 1006.3 hPa | 0 mm | 1.34 m/s, 226° | 665 W/m² | - |
| 1777996354 | 12.78° C | 40% | 1006.2 hPa | 0 mm | 0.89 m/s, 178° | 823 W/m² | - |
| 1777996051 | 12.78° C | 42% | 1006.5 hPa | 0 mm | 0.45 m/s, 153° | 829 W/m² | - |
| 1777995747 | 12.78° C | 42% | 1006.2 hPa | 0 mm | 0 m/s | 757 W/m² | - |
| 1777995444 | 12.78° C | 42% | 1006.2 hPa | 0 mm | 1.34 m/s, 2° | 498 W/m² | - |
| 1777995141 | 12.78° C | 42% | 1006.4 hPa | 0 mm | 0.45 m/s, 94° | 652 W/m² | - |
| 1777994838 | 11.67° C | 45% | 1006.6 hPa | 0 mm | 0.45 m/s, 88° | 827 W/m² | - |
| 1777994534 | 11.67° C | 44% | 1006.5 hPa | 0 mm | 0.45 m/s, 84° | 636 W/m² | - |
| 1777994229 | 11.67° C | 48% | 1006.7 hPa | 0 mm | 0 m/s | 427 W/m² | - |
| 1777993927 | 11.67° C | 49% | 1006.7 hPa | 0 mm | 0 m/s | 368 W/m² | - |
| 1777993623 | 11.11° C | 53% | 1006.7 hPa | 0 mm | 0.45 m/s, 170° | 400 W/m² | - |
* Rain latest hour (hover to see other rain measurements)
** Current wind speed in m/s (hover to see current wind gust speed)